sat.trackr.live / text

‹ back to catalog

LAPAN-TUBSAT

NORAD 29709 · 2007-001A

PAYLOAD ACTIVE UNKNOWN

§ Identity

Operator
Country
INDO
Launch date
2007-01-10
Launch site
SRILR
Launch vehicle
Mass (kg)
RCS (m²)
0.36

Purposes: earth_obs

External: N2YO · Heavens-Above · Gunter

§ Orbital elements

Epoch: 2026-09-04T05:45:23.122080Z

Period
96.90 min
Inclination
98.1398°
Eccentricity
0.0010857
Mean motion
14.86021376 rev/d
Perigee alt
602.8 km
Apogee alt
618.0 km
Semi-major
6,988.5 km
B*
1.0053e-4
RAAN
248.2697°
Arg perigee
292.2139°
Mean anomaly
67.7923°
Rev number
6,289

§ Raw data

LAPAN-TUBSAT1 29709U 07001A   26247.23985095  .00000822  00000+0  10053-3 0  99902 29709  98.1398 248.2697 0010857 292.2139  67.7923 14.86021376 62891

JSON: /api/v1/satellites/29709 · /tle

For live sub-satellite position, see the globe view (requires WebGL).

§ Visibility from observer

Set your observer location to see the next 7 days of passes ≥ 10°. The values pass through the URL so the page stays shareable.

No JS? Fill the form by hand. The geolocation button needs JavaScript.

§ Radio — SatNOGS DB

ModeDescriptionDownlinkUplink
FM Mode U1 436.075 MHz
FM Mode U2 437.325 MHz

2 transmitters · refreshed weekly from db.satnogs.org